Regional Weather Roundup
Issued by NWS

Home | Current Version | Previous Version | Text Only | Print | Product List | Glossary On
Versions: 1 2 3 4 5 6 7 8 9 10 11 12 13 14 15 16 17 18 19 20 21 22 23 24 25 26 27 28 29 30 31 32 33 34 35 36 37 38 39 40 41 42 43 44 45 46 47 48 49 50
000
ASUS43 KMPX 011601
RWRMN
WEATHER ROUNDUP FOR MINNESOTA
NATIONAL WEATHER SERVICE TWIN CITIES/CHANHASSEN MN
1000 AM CST SUN MAR 01 2015


NOTE: "FAIR" INDICATES FEW OR NO CLOUDS BELOW 12,000 FEET WITH NO
SIGNIFICANT WEATHER AND/OR OBSTRUCTIONS TO VISIBILITY. N/A MEANS
CURRENT SKY AND/OR WEATHER CONDITIONS ARE NOT AVAILABLE.

MNZ060>063-068>070-011700-
   Twin Cities Metro

CITY           SKY/WX    TMP DP  RH WIND       PRES   REMARKS
TWIN CITIES    PTSUNNY   18   6  59 W16       30.27R WCI   3
ST PAUL        MOSUNNY   20   6  55 W15       30.28R WCI   6
CRYSTAL        MOSUNNY   18   7  62 W13       30.26R WCI   5
BLAINE         PTSUNNY   19   7  58 W13       30.25R WCI   7
LAKEVILLE      MOSUNNY   14   7  73 W16       30.27S WCI  -2
EDEN PRAIRIE   SUNNY     16   5  62 W12G21    30.27R WCI   3
SOUTH ST PAUL  MOSUNNY   20   9  62 W10       30.27R WCI   9
LAKE ELMO      FAIR      21  10  63 W10G21    30.26R WCI  10
$$
MNZ001>005-007-008-013>017-022>024-027-028-011700-
   Northwest Minnesota

CITY           SKY/WX    TMP DP  RH WIND       PRES   REMARKS
BEMIDJI        SUNNY      9   2  71 SW8       30.12S WCI  -3
HALLOCK        SUNNY      7   1  78 W6        30.15R WCI  -3
ROSEAU         SUNNY      7   0  72 W10G16    30.11S WCI  -8
WARROAD        LGT SNOW   3  -2  78 W8        30.10S VSB 3/4 WCI -10
THIEF RVR FALL SUNNY      3   3 100 SW9       30.14R WCI -11
CROOKSTON      SUNNY      9   3  78 W9        30.19S WCI  -5
FOSSTON        PTSUNNY    3  -2  78 S8        30.15S WCI -10
DETROIT LAKES  SUNNY     10   5  79 W7        30.18S WCI   0
MOORHEAD       SUNNY     14   9  79 W10       30.21F WCI   1
PARK RAPIDS    SUNNY     10   2  69 W9        30.15S WCI  -3
MAHNOMEN       FAIR       4   0  84 SW14      30.16S WCI -14
$$
MNZ006-009>011-018-025>026-011700-
   North Central Minnesota

CITY           SKY/WX    TMP DP  RH WIND       PRES   REMARKS
BAUDETTE       SUNNY      5  -2  72 W6        30.09R WCI  -6
FLAG ISLAND    SUNNY      0  -4  85 CALM      30.08R
INTL FALLS     SUNNY      8   0  69 W10       30.08R WCI  -6
WASKISH        MOSUNNY    9   1  72 SW10      30.11R WCI  -6
BIG FORK       SUNNY     10   1  67 SW14      30.10R WCI  -5
LONGVILLE      MOSUNNY   10   1  67 SW7       30.15S WCI   0
GRAND RAPIDS   MOSUNNY   10   3  72 W7        30.11S WCI   0
CRANE LAKE     SUNNY     12   1  62 W6        30.10S WCI   3
ORR            SUNNY     12   1  62 SW5       30.05S WCI   4
COOK           SUNNY     14   3  62 W8        30.07F WCI   3
WALKER         FAIR       9   1  70 W10       30.13F WCI  -5
$$
MNZ012-019>021-037-011700-
   Northeast Minnesota

CITY           SKY/WX    TMP DP  RH WIND       PRES   REMARKS
DULUTH         PTSUNNY   15   6  67 W15       30.10R WCI   0
ELY            MOSUNNY   16   7  67 W7        30.04  WCI   6
HIBBING        SUNNY     14   2  58 W10       30.10R WCI   1
EVELETH        SUNNY     16   5  62 W7        30.09S WCI   6
DULUTH HARBOR  PTSUNNY   18  10  73 W9        30.18R WCI   6
SILVER BAY     MOSUNNY   19   7  58 SW8       30.07S WCI   9
GRAND MARAIS     N/A     21  14  74 SW14      30.09F WCI   8
G MARAIS ARPRT FLURRIES  18   5  57 W5        29.99F WCI  11
$$
MNZ029>031-032-039>041-046>048-054>057-064-011700-
   West Central Minnesota

CITY           SKY/WX    TMP DP  RH WIND       PRES   REMARKS
FERGUS FALLS   SUNNY     10   1  67 W8        30.26S WCI  -1
MORRIS         SUNNY     18   9  68 W17       30.23F WCI   2
ALEXANDRIA     SUNNY     13   4  67 W7        30.21S WCI   3
ELBOW LAKE     FAIR      12   5  74 W10       30.23R WCI  -2
WADENA         SUNNY      9   1  72 SW8       30.19R WCI  -4
APPLETON       SUNNY     18   7  62 SW10      30.27S WCI   6
BENSON         MOSUNNY   18   7  62 NW10      30.26S WCI   6
ORTONVILLE     SUNNY     19   7  58 W13       30.25S WCI   7
MADISON        SUNNY     19   9  63 W13       30.28S WCI   7
WILLMAR        FAIR      14   5  67 W7        30.28F WCI   4
$$
MNZ033>034-036-042>043-049>051-058-059-011700-
   Central Minnesota

CITY           SKY/WX    TMP DP  RH WIND       PRES   REMARKS
ST CLOUD       MOSUNNY   14   3  61 W13       30.24R WCI   0
SAUK CENTRE    FAIR      14   4  67 W15       30.23F WCI  -2
PAYNESVILLE    SUNNY     13   4  70 SW14      30.26S WCI  -3
PINE RIVER     SUNNY     10   3  72 SW6       30.20S WCI   1
BRAINERD       MOSUNNY   11   3  70 SW7       30.19F WCI   0
STAPLES        SUNNY     10   3  72 W8        30.19S WCI  -1
LONG PRAIRIE   FAIR      12   3  67 SW8       30.22S WCI   1
LITTLE FALLS   SUNNY     14   3  62 W6        30.23S WCI   5
LITCHFIELD     MOSUNNY   14   7  73 W9        30.27S WCI   2
MAPLE LAKE     MOSUNNY   15   7  71 W9        30.27R WCI   3
$$
MNZ037-044-045-052-053-011700-
   East Central Minnesota

CITY           SKY/WX    TMP DP  RH WIND       PRES   REMARKS
PRINCETON      MOSUNNY   18   7  62 W12       30.23S WCI   5
MORA           MOSUNNY   16   5  62 W9        30.23R WCI   4
CAMBRIDGE      MOSUNNY   18   7  62 W8        30.22R WCI   7
RUSH CITY      MOSUNNY   19   8  64 W12       30.22R WCI   6
MOOSE LAKE     SUNNY     18   3  53 W7        30.16S WCI   8
HINCKLEY       FAIR      18   7  62 W10       30.19S WCI   6
CLOQUET        SUNNY     16   3  57 W9        30.13R WCI   4
MCGREGOR       SUNNY     14   5  67 W10       30.17S WCI   1
$$
MNZ071>073-080-081-089-090-097-098-011700-
   Southwest Minnesota

CITY           SKY/WX    TMP DP  RH WIND       PRES   REMARKS
MONTEVIDEO     MOSUNNY   18  10  73 W7        30.29F WCI   8
GRANITE FALLS  MOSUNNY   17   8  67 SW12      30.32S WCI   4
CANBY          SUNNY     20   9  62 W14       30.29F WCI   7
MARSHALL       MOSUNNY   18   7  62 W17       30.30S WCI   2
REDWOOD FALLS  MOSUNNY   15   6  67 W8        30.31R WCI   4
OLIVIA         MOSUNNY   16   9  73 W9        30.29S WCI   4
PIPESTONE      MOSUNNY   18  10  73 W12       30.27S WCI   5
WINDOM         PTSUNNY   19   9  63 W13G22    30.29S WCI   7
WORTHINGTON    PTSUNNY   28   7  40 W9        30.31S WCI  20
JACKSON        PTSUNNY   21   9  58 W12       30.29S WCI   9
TRACY          MOSUNNY   21  10  61 W8G16     30.29S WCI  11
SLAYTON        CLOUDY    17   6  63 W5        30.29S WCI  10
$$
MNZ065>067-074>077-082>085-091>093-011700-
   South Central Minnesota

CITY           SKY/WX    TMP DP  RH WIND       PRES   REMARKS
MANKATO        CLOUDY    16   5  62 W9        30.30S WCI   4
NEW ULM        PTSUNNY   16   5  62 W13       30.31S WCI   2
ST JAMES       PTSUNNY   19   9  63 W10       30.32S WCI   8
FAIRMONT       PTSUNNY   19  10  68 W10       30.30S WCI   8
GLENCOE        MOSUNNY   15   8  74 W8        30.29R WCI   4
FARIBAULT      PTSUNNY   16   7  67 W12       30.28S WCI   3
OWATONNA       PTSUNNY   18   7  62 W14       30.28R WCI   4
ALBERT LEA     MOSUNNY   18  10  73 W9        30.29R WCI   6
$$
MNZ078>079-086>088-094>096-011700-
   Southeast Minnesota

CITY           SKY/WX    TMP DP  RH WIND       PRES   REMARKS
ROCHESTER      PTSUNNY   17  12  80 W15       30.26R HAZE    WCI   2
RED WING       CLOUDY    19  12  73 W12       30.27R WCI   7
STANTON        MOSUNNY   18   7  62 W12G21    30.27R WCI   5
DODGE CENTER   MOSUNNY   18  12  79 CALM      30.25S
WINONA         CLOUDY    21  16  79 W5        30.30S WCI  15
AUSTIN         MOSUNNY   16  12  86 W12       30.28S WCI   3
PRESTON        CLOUDY    16  14  91 W9        30.27S WCI   4
$$
ABBREVIATIONS USED IN REMARKS
   TC - TEMPERATURES IN CELSIUS
  WCI - WIND CHILL INDEX
   HX - HEAT INDEX
  VSB - VISIBILITY
$$


USA.gov is the U.S. government's official web portal to all federal, state and local government web resources and services.